Tracking 26006 objects as of 17-Aug-2022
HD Live streaming from Space Station
objects crossing your sky now

RESURS O1 DEB

Track RESURS O1 DEB now!
10-day predictions


NORAD ID: 46882
Int'l Code: 1994-074BN
Perigee: 609.0 km
Apogee: 621.9 km
Inclination: 97.9 °
Period: 96.9 minutes
Semi major axis: 6986 km
RCS: Unknown
Launch date: November 4, 1994
Source: Commonwealth of Independent States (former USSR) (CIS)
Launch site: TYURATAM MISSILE AND SPACE COMPLEX (TTMTR)

Note: This is SATELLITE DEBRIS
aabbcc
Your satellite tracking list
Your tracking list is empty




NASA's NSSDC Master Catalog

Two Line Element Set (TLE):
1 46882U 94074BN  22229.12812138  .00008818  00000-0  99707-3 0  9995
2 46882  97.9003 279.8585 0009283 247.9824 112.0406 14.86678471 96528
Source of the keplerian elements: AFSPC